Caldwell, NJ

4:54 PM EDT on April 23, 2017 (GMT -0400)
Essex County

Weather History for KCDW - January, 2012

Change the Weather History Date:

Tuesday, January 17, 2012

  Actual Average Record
Temperature  
Mean Temperature 40 °F -  
Max Temperature 48 °F 35 °F 55 °F (1953)
Min Temperature 33 °F 16 °F -7 °F (1982)
Degree Days  
Heating Degree Days 26    
Moisture  
Dew Point 38 °F    
Average Humidity 93    
Maximum Humidity 100    
Minimum Humidity 79    
Precipitation  
Precipitation 0.12 in - - ()
Sea Level Pressure  
Sea Level Pressure 29.78 in    
Wind  
Wind Speed 1 mph (SW)    
Max Wind Speed 6 mph    
Max Gust Speed -    
Visibility 4 miles    
Events Fog , Rain    
Averages and records for this station are not official NWS values.
T = Trace of Precipitation, MM = Missing Value Source: NWS Daily Summary

Daily Weather History Graph

Daily Weather History Graph

Search for Another Location

Airport or City:

Trip Planner

Search our weather history database for the weather conditions in past years. The results will help you decide how hot, cold, wet, or windy it might be!

Date:

Astronomy

Jan. 17, 2012 Rise Set
Actual Time 7:18 AM EST 4:55 PM EST
Civil Twilight 6:48 AM EST 5:25 PM EST
Nautical Twilight 6:14 AM EST 5:59 PM EST
Astronomical Twilight 5:42 AM EST 6:32 PM EST
Moon 1:35 AM EST (1/17) 11:47 AM EST (1/17)
Length of Visible Light 10h 37m
Length of Day
9h 36m
Waning Crescent, 35% of the Moon is Illuminated
Jan 17
Waning Crescent
Jan 23
New
Jan 30
First Quarter
Feb 7
Full
Feb 14
Last Quarter

Hourly Weather History & Observations

Time (EST) Temp. Windchill Dew Point Humidity Pressure Visibility Wind Dir Wind Speed Gust Speed Precip Events Conditions
12:53 AM 33.1 °F - 28.0 °F 82% 30.16 in 10.0 mi Calm Calm - N/A   Overcast
1:53 AM 33.1 °F - 30.0 °F 89% 30.12 in 10.0 mi Calm Calm - 0.01 in   Overcast
2:53 AM 33.1 °F 30.0 °F 30.0 °F 89% 30.10 in 10.0 mi SW 3.5 mph - 0.00 in   Overcast
3:53 AM 33.1 °F 28.7 °F 30.9 °F 92% 30.07 in 7.0 mi SW 4.6 mph - 0.00 in Rain Light Rain
4:18 AM 33.8 °F 30.8 °F 32.0 °F 93% 30.04 in 7.0 mi SW 3.5 mph - 0.00 in   Overcast
5:53 AM 35.1 °F - 33.1 °F 92% 30.04 in 7.0 mi Calm Calm - N/A   Overcast
6:53 AM 35.1 °F - 33.1 °F 92% 30.02 in 7.0 mi Calm Calm - N/A   Overcast
7:53 AM 35.1 °F - 34.0 °F 96% 30.01 in 5.0 mi Calm Calm - N/A   Mostly Cloudy
8:53 AM 37.0 °F - 34.0 °F 89% 30.00 in 6.0 mi Calm Calm - N/A   Mostly Cloudy
9:23 AM 37.4 °F 33.8 °F 33.8 °F 87% 29.97 in 6.0 mi SW 4.6 mph - N/A   Overcast
9:53 AM 37.9 °F - 34.0 °F 86% 29.98 in 7.0 mi Calm Calm - N/A   Mostly Cloudy
10:53 AM 39.9 °F 36.7 °F 34.0 °F 79% 29.95 in 10.0 mi Variable 4.6 mph - N/A   Overcast
11:53 AM 39.0 °F 36.8 °F 36.0 °F 89% 29.90 in 4.0 mi SW 3.5 mph - 0.02 in Rain Light Rain
12:47 PM 39.2 °F - 37.4 °F 93% 29.81 in 2.5 mi Calm Calm - 0.04 in Rain Light Rain
12:53 PM 39.9 °F - 37.9 °F 93% 29.83 in 2.5 mi Calm Calm - 0.05 in Rain Light Rain
1:03 PM 39.2 °F 37.0 °F 37.4 °F 93% 29.82 in 4.0 mi SW 3.5 mph - 0.00 in Rain Light Rain
1:19 PM 39.2 °F - 37.4 °F 93% 29.80 in 2.0 mi Calm Calm - 0.01 in Rain Light Rain
1:28 PM 39.2 °F - 37.4 °F 93% 29.79 in 1.8 mi Calm Calm - 0.01 in Rain Light Rain
1:37 PM 39.2 °F - 37.4 °F 93% 29.78 in 2.5 mi Calm Calm - 0.01 in   Overcast
1:44 PM 39.2 °F - 37.4 °F 93% 29.78 in 3.0 mi Calm Calm - 0.01 in   Overcast
1:53 PM 39.9 °F 37.8 °F 37.9 °F 93% 29.80 in 3.0 mi SW 3.5 mph - 0.01 in Rain Light Rain
2:22 PM 39.2 °F 37.0 °F 39.2 °F 100% 29.78 in 2.0 mi WSW 3.5 mph - 0.01 in Rain Light Rain
2:31 PM 39.2 °F - 39.2 °F 100% 29.75 in 1.8 mi Calm Calm - 0.02 in Rain Light Rain
2:50 PM 41.0 °F 39.0 °F 39.2 °F 93% 29.74 in 2.5 mi Variable 3.5 mph - 0.03 in Rain Light Rain
2:53 PM 41.0 °F 38.0 °F 39.9 °F 96% 29.76 in 3.0 mi SW 4.6 mph - 0.03 in Rain Light Rain
3:53 PM 42.1 °F 38.4 °F 39.9 °F 92% 29.74 in 5.0 mi SW 5.8 mph - 0.00 in   Overcast
4:53 PM 43.0 °F 41.3 °F 41.0 °F 93% 29.72 in 4.0 mi Variable 3.5 mph - N/A   Overcast
5:10 PM 42.8 °F - 41.0 °F 93% 29.68 in 5.0 mi Calm Calm - N/A   Overcast
5:53 PM 44.1 °F - 42.1 °F 93% 29.69 in 5.0 mi Calm Calm - N/A   Overcast
6:07 PM 44.6 °F - 42.8 °F 93% 29.66 in 4.0 mi Calm Calm - N/A   Overcast
6:36 PM 44.6 °F - 42.8 °F 93% 29.63 in 4.0 mi Calm Calm - N/A   Overcast
6:53 PM 44.1 °F - 42.1 °F 93% 29.65 in 4.0 mi Calm Calm - N/A   Overcast
7:24 PM 42.8 °F - 42.8 °F 100% 29.61 in 2.5 mi Calm Calm - N/A   Scattered Clouds
7:38 PM 41.0 °F 39.0 °F 39.2 °F 93% 29.61 in 1.0 mi NW 3.5 mph - N/A   Mist
7:44 PM 39.2 °F - 39.2 °F 100% 29.61 in 0.5 mi Calm Calm - N/A Fog Fog
7:51 PM 39.2 °F - 39.2 °F 100% 29.60 in 0.2 mi Calm Calm - N/A Fog Fog
7:53 PM 39.9 °F - 39.0 °F 97% 29.62 in 0.2 mi Calm Calm - N/A Fog Fog
8:24 PM 37.4 °F - 37.4 °F 100% 29.60 in 0.2 mi Calm Calm - N/A Fog Fog
8:39 PM 37.4 °F - 37.4 °F 100% 29.59 in 0.2 mi Calm Calm - N/A Fog Fog
8:50 PM 37.4 °F - 37.4 °F 100% 29.58 in 0.2 mi Calm Calm - N/A Fog Fog
8:53 PM 37.0 °F - 37.0 °F 100% 29.60 in 0.2 mi Calm Calm - N/A Fog Fog
9:06 PM 37.4 °F - 35.6 °F 93% 29.58 in 0.5 mi Calm Calm - N/A Fog Fog
9:26 PM 42.8 °F 41.1 °F 41.0 °F 93% 29.57 in 3.0 mi SSW 3.5 mph - N/A   Clear
9:53 PM 44.1 °F 41.5 °F 42.1 °F 93% 29.58 in 9.0 mi SW 4.6 mph - N/A   Clear
10:53 PM 46.9 °F - 43.0 °F 86% 29.56 in 10.0 mi WSW 3.5 mph - N/A   Clear
11:53 PM 48.9 °F - 44.1 °F 83% 29.56 in 10.0 mi SW 5.8 mph - N/A   Clear